When you browse on this site, cookies collect data to enhance your experience and personalize the content and advertising you see.
Visit our Privacy Policy to learn more. By continuing to use the site, you agree to this use of cookies and data.
  • In Hungary
  • List of Countries
  • For 7 days
  • Water Temperature
  • Satellite Maps
  • Weather Map
  • News
  • Weather Widgets
  • user-avatar
    Login

    Hourly Weather Vesshurga

    Today, 18 November, Sunday

    Time Temperature Precipitation Wind Pressure Humidity
    00:00 -3°C° 0.2 mm 4 mps 747 mmHg 90%
    01:00 -3°C° 0.3 mm 4 mps 747 mmHg 90%
    02:00 -3°C° 0.3 mm 4 mps 747 mmHg 90%
    03:00 -2°C° 0 mm 3 mps 746 mmHg 89%
    04:00 -2°C° 0.2 mm 3 mps 745 mmHg 89%
    05:00 -2°C° 0.2 mm 3 mps 745 mmHg 89%
    06:00 -2°C° 0.2 mm 3 mps 745 mmHg 89%
    07:00 -2°C° 0.1 mm 3 mps 745 mmHg 89%
    08:00 -2°C° 0.1 mm 3 mps 746 mmHg 89%
    09:00 -2°C° 0 mm 3 mps 746 mmHg 89%
    10:00 -2°C° 0 mm 3 mps 746 mmHg 89%
    11:00 -1°C° 0 mm 3 mps 746 mmHg 88%
    12:00 -1°C° 0 mm 3 mps 746 mmHg 88%
    13:00 -1°C° 0 mm 3 mps 747 mmHg 89%
    14:00 -1°C° 0 mm 3 mps 747 mmHg 90%
    15:00 -1°C° 0 mm 3 mps 747 mmHg 91%
    16:00 -1°C° 0 mm 2 mps 747 mmHg 92%
    17:00 -1°C° 0 mm 2 mps 748 mmHg 93%
    18:00 -1°C° 0 mm 2 mps 748 mmHg 95%
    19:00 -1°C° 0 mm 2 mps 748 mmHg 95%
    20:00 -1°C° 0 mm 2 mps 748 mmHg 96%
    21:00 -1°C° 0 mm 2 mps 749 mmHg 96%
    22:00 -1°C° 0 mm 2 mps 749 mmHg 96%
    23:00 -1°C° 0 mm 2 mps 749 mmHg 96%

    Tomorrow, 19 November, Monday

    Time Temperature Precipitation Wind Pressure Humidity
    00:00 -1°C° 0 mm 2 mps 749 mmHg 97%
    01:00 -1°C° 0 mm 2 mps 749 mmHg 97%
    02:00 -2°C° 0 mm 2 mps 750 mmHg 97%
    03:00 -2°C° 0 mm 2 mps 750 mmHg 97%
    04:00 -2°C° 0.1 mm 2 mps 750 mmHg 97%
    05:00 -2°C° 0.1 mm 2 mps 750 mmHg 97%
    06:00 -2°C° 0.1 mm 2 mps 750 mmHg 97%
    07:00 -1°C° 0.1 mm 2 mps 751 mmHg 96%
    08:00 -1°C° 0.1 mm 2 mps 751 mmHg 96%
    09:00 -1°C° 0.1 mm 2 mps 751 mmHg 95%
    10:00 -1°C° 0.1 mm 2 mps 752 mmHg 95%
    11:00 +1°C° 0.1 mm 2 mps 752 mmHg 94%
    12:00 +1°C° 0.1 mm 2 mps 752 mmHg 93%
    13:00 +1°C° 0.1 mm 2 mps 752 mmHg 94%
    14:00 +1°C° 0.1 mm 2 mps 753 mmHg 94%
    15:00 -1°C° 0.1 mm 2 mps 753 mmHg 95%
    16:00 -1°C° 0.1 mm 2 mps 753 mmHg 95%
    17:00 -1°C° 0.1 mm 3 mps 753 mmHg 95%
    18:00 -1°C° 0.1 mm 3 mps 753 mmHg 95%
    19:00 -1°C° 0.1 mm 3 mps 753 mmHg 94%
    20:00 -2°C° 0.1 mm 3 mps 753 mmHg 93%
    21:00 -2°C° 0.1 mm 3 mps 753 mmHg 93%
    22:00 -2°C° 0 mm 3 mps 753 mmHg 91%
    23:00 -2°C° 0 mm 3 mps 753 mmHg 90%

    Day after tomorrow, 20 November, Tuesday

    Time Temperature Precipitation Wind Pressure Humidity
    00:00 -4°C° 0 mm 3 mps 753 mmHg 89%
    01:00 -4°C° 0 mm 3 mps 753 mmHg 89%
    02:00 -4°C° 0 mm 3 mps 753 mmHg 89%
    03:00 -3°C° 0 mm 2 mps 753 mmHg 89%
    04:00 -4°C° 0 mm 2 mps 753 mmHg 89%
    05:00 -4°C° 0 mm 2 mps 753 mmHg 90%
    06:00 -4°C° 0 mm 2 mps 753 mmHg 91%
    07:00 -4°C° 0 mm 2 mps 753 mmHg 91%
    08:00 -4°C° 0 mm 2 mps 753 mmHg 91%
    09:00 -4°C° 0 mm 2 mps 753 mmHg 90%
    10:00 -4°C° 0 mm 2 mps 752 mmHg 88%
    11:00 -4°C° 0 mm 2 mps 752 mmHg 85%
    12:00 -4°C° 0 mm 2 mps 751 mmHg 83%
    13:00 -5°C° 0 mm 3 mps 751 mmHg 82%
    14:00 -5°C° 0 mm 3 mps 751 mmHg 82%
    15:00 -5°C° 0 mm 3 mps 750 mmHg 82%
    16:00 -5°C° 0 mm 3 mps 750 mmHg 83%
    17:00 -5°C° 0 mm 3 mps 750 mmHg 83%
    18:00 -5°C° 0 mm 3 mps 749 mmHg 84%
    19:00 -5°C° 0 mm 3 mps 749 mmHg 85%
    20:00 -5°C° 0 mm 4 mps 748 mmHg 85%
    21:00 -7°C° 0 mm 4 mps 748 mmHg 86%
    22:00 -5°C° 0 mm 4 mps 747 mmHg 85%
    23:00 -5°C° 0 mm 4 mps 747 mmHg 84%

    21 November, Wednesday

    Time Temperature Precipitation Wind Pressure Humidity
    00:00 -5°C° 0 mm 4 mps 747 mmHg 83%
    01:00 -5°C° 0 mm 4 mps 746 mmHg 82%
    02:00 -5°C° 0 mm 4 mps 746 mmHg 82%
    03:00 -5°C° 0 mm 4 mps 746 mmHg 82%
    04:00 -5°C° 0 mm 4 mps 746 mmHg 82%
    05:00 -5°C° 0 mm 4 mps 745 mmHg 82%
    06:00 -5°C° 0 mm 4 mps 745 mmHg 82%
    07:00 -5°C° 0.1 mm 4 mps 745 mmHg 84%
    08:00 -4°C° 0.1 mm 4 mps 745 mmHg 85%
    09:00 -4°C° 0.1 mm 4 mps 745 mmHg 86%
    10:00 -4°C° 0 mm 4 mps 746 mmHg 85%
    11:00 -4°C° 0 mm 5 mps 746 mmHg 83%
    12:00 -4°C° 0 mm 5 mps 746 mmHg 81%
    13:00 -3°C° 0 mm 4 mps 746 mmHg 80%
    14:00 -3°C° 0 mm 4 mps 746 mmHg 79%
    15:00 -4°C° 0 mm 4 mps 746 mmHg 78%
    16:00 -4°C° 0 mm 4 mps 746 mmHg 77%
    17:00 -5°C° 0 mm 4 mps 746 mmHg 76%
    18:00 -5°C° 0 mm 4 mps 746 mmHg 75%
    19:00 -7°C° 0 mm 4 mps 746 mmHg 76%
    20:00 -7°C° 0 mm 4 mps 746 mmHg 77%
    21:00 -6°C° 0 mm 3 mps 745 mmHg 78%
    22:00 -8°C° 0 mm 4 mps 745 mmHg 80%
    23:00 -8°C° 0 mm 4 mps 745 mmHg 82%

    22 November, Thursday

    Time Temperature Precipitation Wind Pressure Humidity
    00:00 -8°C° 0 mm 4 mps 744 mmHg 84%
    01:00 -8°C° 0 mm 4 mps 744 mmHg 85%
    02:00 -8°C° 0 mm 4 mps 743 mmHg 85%
    03:00 -8°C° 0 mm 4 mps 742 mmHg 85%
    04:00 -8°C° 0 mm 5 mps 741 mmHg 85%
    05:00 -8°C° 0 mm 5 mps 741 mmHg 85%
    06:00 -8°C° 0 mm 6 mps 740 mmHg 84%
    07:00 -8°C° 0.1 mm 6 mps 739 mmHg 83%
    08:00 -8°C° 0.1 mm 6 mps 738 mmHg 82%
    09:00 -7°C° 0.1 mm 7 mps 737 mmHg 81%
    10:00 -7°C° 0.2 mm 7 mps 737 mmHg 80%
    11:00 -6°C° 0.2 mm 7 mps 736 mmHg 79%
    12:00 -5°C° 0.2 mm 8 mps 736 mmHg 78%
    13:00 -6°C° 0.1 mm 8 mps 736 mmHg 72%
    14:00 -7°C° 0.1 mm 8 mps 736 mmHg 66%
    15:00 -8°C° 0.1 mm 8 mps 737 mmHg 60%
    16:00 -9°C° 0 mm 7 mps 738 mmHg 62%
    17:00 -9°C° 0 mm 7 mps 739 mmHg 63%
    18:00 -10°C° 0 mm 6 mps 740 mmHg 64%
    19:00 -10°C° 0 mm 6 mps 740 mmHg 66%
    20:00 -10°C° 0 mm 6 mps 741 mmHg 68%
    21:00 -11°C° 0 mm 5 mps 742 mmHg 70%
    22:00 -11°C° 0 mm 5 mps 742 mmHg 72%
    23:00 -11°C° 0 mm 5 mps 742 mmHg 74%

    23 November, Friday

    Time Temperature Precipitation Wind Pressure Humidity
    00:00 -11°C° 0 mm 5 mps 742 mmHg 76%
    01:00 -11°C° 0 mm 5 mps 743 mmHg 77%
    02:00 -11°C° 0 mm 5 mps 743 mmHg 79%
    03:00 -10°C° 0 mm 5 mps 743 mmHg 80%
    04:00 -11°C° 0 mm 5 mps 744 mmHg 80%
    05:00 -11°C° 0 mm 5 mps 744 mmHg 81%
    06:00 -11°C° 0 mm 5 mps 744 mmHg 81%
    07:00 -11°C° 0 mm 5 mps 745 mmHg 82%
    08:00 -10°C° 0 mm 5 mps 745 mmHg 82%
    09:00 -10°C° 0 mm 5 mps 746 mmHg 82%
    10:00 -10°C° 0 mm 5 mps 746 mmHg 81%
    11:00 -10°C° 0 mm 5 mps 746 mmHg 80%
    12:00 -8°C° 0 mm 5 mps 746 mmHg 79%
    13:00 -8°C° 0 mm 5 mps 746 mmHg 79%
    14:00 -8°C° 0 mm 5 mps 746 mmHg 79%
    15:00 -8°C° 0 mm 5 mps 746 mmHg 79%
    16:00 -8°C° 0 mm 4 mps 745 mmHg 81%
    17:00 -8°C° 0 mm 4 mps 745 mmHg 82%
    18:00 -9°C° 0 mm 4 mps 745 mmHg 83%
    19:00 -8°C° 0 mm 4 mps 745 mmHg 85%
    20:00 -7°C° 0 mm 5 mps 744 mmHg 86%
    21:00 -7°C° 0 mm 5 mps 744 mmHg 87%
    22:00 -6°C° 0 mm 5 mps 744 mmHg 87%
    23:00 -6°C° 0 mm 6 mps 743 mmHg 86%
    Show more